Main page
METAR-TAF:

METAR-TAF

Airports :

Gaines County Airport

Seminole, Texas, United States

latitude: 32-40-31N, longitude: 102-39-09W, elevation: 3313 ft

Current weather observation

The report was made 14 minutes ago, at 09:15 UTC
Calm wind
Temperature 73°F
Humidity 65%
Pressure 30.15 in. Hg
Visibility: 10 miles
Clear sky

METAR: KGNC 170915Z AUTO 00000KT 10SM CLR 23/16 A3015 RMK AO2 T02290162

Time: 04:29 (09:29 UTC)


TAF: missing

Weather observations and forecasts of more than 4000 airports (METAR and TAF reports).

The available stations are represented by yellow and red dots on the map.

Hover mouse over dot to see the name of the station.

Then click to see weather observations and forecasts.

To change the map : click on the green buttons with a black cross to zoom in, on the green button with a dash to zoom out, or on the green arrows for adjacent maps.


METAR-TAF: